Regional Weather Roundup
Issued by NWS

Home | Current Version | Previous Version | Text Only | Print | Product List | Glossary Off
Versions: 1 2 3 4 5 6 7 8 9 10 11 12 13 14 15 16 17 18 19 20 21 22 23 24 25 26 27 28 29 30 31 32 33 34 35 36 37 38 39 40 41 42 43 44 45 46 47 48 49 50

245
ASUS43 KLOT 232004
RWRIL

ILLINOIS REGIONAL WEATHER ROUNDUP
NATIONAL WEATHER SERVICE CHICAGO/ROMEOVILLE IL
300 PM CDT SUN JUL 23 2017

NOTE: "FAIR" INDICATES FEW OR NO CLOUDS BELOW 12,000 FEET WITH NO
SIGNIFICANT WEATHER AND/OR OBSTRUCTIONS TO VISIBILITY.

* THESE STATIONS ARE NOT UNDER NWS QUALITY CONTROL. THEY ALSO MAY NOT
  REPORT WEATHER SUCH AS PRECIPITATION OR FOG.

ILZ001-002-007-009-015-016-024-232100-
NORTHWEST ILLINOIS

CITY           SKY/WX    TMP DP  RH WIND       PRES   REMARKS
MOLINE         SUNNY     90  67  46 NW17G23   29.81F HX  93
STERLING*      MOSUNNY   88  71  57 W18G24    29.79F HX  94
SAVANNA*       SUNNY     86  64  47 W16G22    29.80R HX  87
$$

ILZ003-004-008-010-011-017-018-232100-
NORTH CENTRAL ILLINOIS

CITY           SKY/WX    TMP DP  RH WIND       PRES   REMARKS
ROCKFORD       PTSUNNY   88  69  53 W14       29.77F HX  92
FREEPORT*      MOSUNNY   85  70  61 W12G23    29.79F HX  89
ROCHELLE*      MOSUNNY   85  72  65 SW12      29.79F HX  90
DE KALB*       MOSUNNY   85  70  60 W16       29.79F HX  89
PERU*          MOSUNNY   87  69  55 W12       29.81F HX  91
$$

ILZ005-006-012>014-019>023-232100-
NORTHEAST ILLINOIS

CITY           SKY/WX    TMP DP  RH WIND       PRES   REMARKS
CHICAGO-OHARE  MOSUNNY   88  62  41 W8        29.78S HX  88
CHICAGO-MIDWAY MOSUNNY   90  61  37 W17       29.77F HX  90
AURORA         SUNNY     87  71  58 W12       29.79F HX  93
LANSING*       MOSUNNY   89  60  38 W12G18    29.78S HX  88
JOLIET*        MOSUNNY   89  71  54 W9        29.80F HX  95
WAUKEGAN       CLOUDY    77  66  68 NW7       29.79R
DUPAGE AIRPORT MOSUNNY   86  68  54 W10G20    29.78F HX  89
WHEELING       PTSUNNY   87  63  44 W9        29.79S HX  88
MORRIS*        SUNNY     86  70  58 NW12      29.79F HX  90
ROMEOVILLE*    MOSUNNY   86  65  50 W16       29.79F HX  88
NORTHERLY ISL    N/A     83  70  64 CALM        N/A  HX  87
$$

LMZ740>746-232100-
SOUTHERN LAKE MICHIGAN

STATION/POSITION SKY/WX   TEMP    WIND        PRES    VSBY  WAVE
                          AIR SEA DIR/SP/G                  HT/PER
                          (F)     (DEG/KT/KT) (MB)    (MI)  (FT/S)
SOUTHERN BUOY              73 71  280/  4/  6 1008.6          1
WILMETTE HARBOR            81 77   40/  2/  4   N/A           0
HARRISON CRIB              82      80/  1/  2   N/A
BURNHAM HARBOR             84                   N/A
CALUMET HARBOR             81      50/  5/  5 1008.1F
BURNS HARBOR               84      30/  2/  3 1008.8F
MICHIGAN CITY              81     310/  3/  4   N/A
MICHIGAN CITY 6N           79 78  350/  2/  4   N/A           1
ST. JOSEPH                 76 76  320/  6/  8 1008.3F         1
$$

ILZ025>027-034>036-040-047-049-050-058-095>099-232100-
WEST-CENTRAL ILLINOIS

CITY           SKY/WX    TMP DP  RH WIND       PRES   REMARKS
QUINCY         PTSUNNY   92  71  50 W6        29.85F HX  98
MACOMB*        SUNNY     88  71  55 NW9       29.87S HX  94
JACKSONVILLE*  SUNNY     90  71  54 SW7       29.85F HX  96
PITTSFIELD*    SUNNY     91  73  54 W6        29.87F HX  99
$$

ILZ028>032-037-038-041>044-048-051>054-059>061-232100-
CENTRAL ILLINOIS

CITY           SKY/WX    TMP DP  RH WIND       PRES   REMARKS
PONTIAC        SUNNY     87  72  61 W12       29.83S HX  93
BLOOMINGTON    SUNNY     89  66  46 W13       29.85F HX  91
DECATUR        MOSUNNY   89  68  49 W12       29.85S HX  93
PEORIA         MOSUNNY   90  70  51 W12       29.83F HX  95
LACON*         SUNNY     89  70  53 W9        29.81F HX  93
LINCOLN*       MOSUNNY   90  74  57 NW6       29.84S HX  99
SPRINGFIELD    MOSUNNY   91  75  59 SW8       29.85F HX 101
TAYLORVILLE    MOSUNNY   87  74  65 W5        29.85F HX  96
$$

ILZ033-039-045-046-055>057-062-063-232100-
EAST-CENTRAL ILLINOIS

CITY           SKY/WX    TMP DP  RH WIND       PRES   REMARKS
CHAMPAIGN      MOSUNNY   88  70  55 NW13      29.84S HX  93
RANTOUL*       SUNNY     90  69  50 NW10G17   29.83S HX  94
MATTOON        PTSUNNY   88  75  65 W13       29.84F HX  97
$$

ILZ079-100>102-232100-
SOUTHWEST ILLINOIS

CITY           SKY/WX    TMP DP  RH WIND       PRES   REMARKS
ALTON          MOSUNNY   86  72  62 W6        29.88F HX  92
BELLEVILLE     MOSUNNY   89  69  52 SW6       29.88F HX  93
CAHOKIA*       PTSUNNY   91  63  39 S3        29.87F HX  92
SPARTA*        MOSUNNY   88  66  48 W3        29.89F HX  90
$$

ILZ064>066-069>071-074>076-080>082-084>086-088>090-092>094-232100-
SOUTH-CENTRAL ILLINOIS

CITY           SKY/WX    TMP DP  RH WIND       PRES   REMARKS
CARBONDALE     SUNNY     87  72  60 N5        29.88S HX  93
CAIRO*         SUNNY     90  71  53 SW5       29.85F HX  96
EFFINGHAM*     SUNNY     87  71  58 SW9       29.88F HX  93
MARION         MOSUNNY   88  72  58 N7        29.88F HX  94
MT. VERNON     MOSUNNY   86  71  60 VRB5      29.88F HX  91
CENTRALIA*     MOSUNNY   87  69  55 W6        29.87F HX  91
SALEM*         SUNNY     88  67  51 W8        29.88F HX  91
METROPOLIS*    SUNNY     91  72  53 W3        29.86F HX  97
$$

ILZ067-068-072-073-078-083-087-091-232100-
SOUTHEAST ILLINOIS

CITY           SKY/WX    TMP DP  RH WIND       PRES   REMARKS
LAWRENCEVILLE  PTSUNNY   85  72  65 W12       29.85F HX  91
FLORA*         SUNNY     87  71  57 SW8       29.86F HX  93
FAIRFIELD*     MOSUNNY   86  69  58 SW6       29.86F HX  90
HARRISBURG*    MOSUNNY   89  73  59 NW7       29.87S HX  97
ROBINSON*      MOSUNNY   84  73  69 W13       29.85F HX  90
CARMI*         SUNNY     86  73  65 NW10      29.87S HX  93
$$

ABBREVIATIONS USED IN REMARKS
   TC - TEMPERATURE IN CELSIUS
  WCI - WIND CHILL INDEX
   HX - HEAT INDEX
  VSB - VISIBILITY
$$





USA.gov is the U.S. government's official web portal to all federal, state and local government web resources and services.